When you browse on this site, cookies collect data to enhance your experience and personalize the content and advertising you see.
Visit our Privacy Policy to learn more. By continuing to use the site, you agree to this use of cookies and data.
  • In Denmark
  • List of Countries
  • For 7 days
  • Water Temperature
  • Weather Map
  • Weather Widgets
  • user-avatar
    Login

    Hourly Weather Bielowice

    Today, 15 October, Tuesday

    Time Temperature Precipitation Wind Pressure Humidity
    00:00 +16°C° 0 mm 3 mps 743 mmHg 73%
    01:00 +14°C° 0 mm 3 mps 743 mmHg 78%
    02:00 +14°C° 0 mm 3 mps 742 mmHg 78%
    03:00 +14°C° 0 mm 3 mps 742 mmHg 78%
    04:00 +14°C° 0 mm 3 mps 741 mmHg 79%
    05:00 +14°C° 0 mm 3 mps 741 mmHg 80%
    06:00 +14°C° 0 mm 3 mps 741 mmHg 81%
    07:00 +14°C° 0 mm 3 mps 741 mmHg 81%
    08:00 +15°C° 0 mm 4 mps 741 mmHg 75%
    09:00 +18°C° 0 mm 4 mps 741 mmHg 69%
    10:00 +19°C° 0 mm 5 mps 740 mmHg 62%
    11:00 +20°C° 0 mm 5 mps 740 mmHg 59%
    12:00 +21°C° 0 mm 5 mps 740 mmHg 56%
    13:00 +22°C° 0 mm 5 mps 739 mmHg 53%
    14:00 +22°C° 0 mm 4 mps 739 mmHg 56%
    15:00 +21°C° 0 mm 4 mps 738 mmHg 58%
    16:00 +21°C° 0 mm 3 mps 738 mmHg 61%
    17:00 +19°C° 0 mm 3 mps 738 mmHg 65%
    18:00 +18°C° 0 mm 3 mps 738 mmHg 69%
    19:00 +17°C° 0 mm 3 mps 738 mmHg 73%
    20:00 +16°C° 0 mm 3 mps 737 mmHg 74%
    21:00 +16°C° 0 mm 3 mps 737 mmHg 76%
    22:00 +16°C° 0 mm 3 mps 737 mmHg 77%
    23:00 +14°C° 0 mm 3 mps 737 mmHg 80%

    Tomorrow, 16 October, Wednesday

    Time Temperature Precipitation Wind Pressure Humidity
    00:00 +14°C° 0 mm 3 mps 737 mmHg 83%
    01:00 +14°C° 0 mm 3 mps 737 mmHg 86%
    02:00 +14°C° 0 mm 4 mps 737 mmHg 86%
    03:00 +14°C° 0 mm 4 mps 737 mmHg 87%
    04:00 +14°C° 0 mm 4 mps 737 mmHg 87%
    05:00 +14°C° 0 mm 4 mps 738 mmHg 83%
    06:00 +14°C° 0 mm 5 mps 739 mmHg 80%
    07:00 +15°C° 0 mm 6 mps 739 mmHg 76%
    08:00 +15°C° 0 mm 6 mps 740 mmHg 74%
    09:00 +15°C° 0 mm 6 mps 741 mmHg 73%
    10:00 +15°C° 0 mm 7 mps 742 mmHg 71%
    11:00 +15°C° 0 mm 6 mps 742 mmHg 69%
    12:00 +15°C° 0 mm 6 mps 742 mmHg 67%
    13:00 +15°C° 0 mm 6 mps 743 mmHg 65%
    14:00 +14°C° 0 mm 6 mps 743 mmHg 63%
    15:00 +14°C° 0 mm 5 mps 743 mmHg 62%
    16:00 +14°C° 0 mm 5 mps 743 mmHg 61%
    17:00 +13°C° 0 mm 5 mps 743 mmHg 63%
    18:00 +13°C° 0 mm 4 mps 743 mmHg 65%
    19:00 +12°C° 0 mm 4 mps 743 mmHg 67%
    20:00 +11°C° 0 mm 4 mps 744 mmHg 68%
    21:00 +11°C° 0 mm 4 mps 744 mmHg 68%
    22:00 +11°C° 0 mm 4 mps 744 mmHg 69%
    23:00 +11°C° 0 mm 4 mps 745 mmHg 71%

    Day after tomorrow, 17 October, Thursday

    Time Temperature Precipitation Wind Pressure Humidity
    00:00 +11°C° 0 mm 4 mps 745 mmHg 73%
    01:00 +10°C° 0 mm 3 mps 745 mmHg 75%
    02:00 +10°C° 0 mm 3 mps 745 mmHg 75%
    03:00 +10°C° 0 mm 3 mps 745 mmHg 75%
    04:00 +10°C° 0 mm 2 mps 745 mmHg 75%
    05:00 +10°C° 0 mm 2 mps 745 mmHg 75%
    06:00 +10°C° 0 mm 2 mps 745 mmHg 74%
    07:00 +12°C° 0 mm 2 mps 745 mmHg 73%
    08:00 +13°C° 0 mm 2 mps 745 mmHg 67%
    09:00 +15°C° 0 mm 2 mps 745 mmHg 61%
    10:00 +17°C° 0 mm 2 mps 746 mmHg 55%
    11:00 +18°C° 0 mm 2 mps 746 mmHg 52%
    12:00 +19°C° 0 mm 2 mps 746 mmHg 49%
    13:00 +20°C° 0 mm 2 mps 746 mmHg 45%
    14:00 +19°C° 0 mm 2 mps 745 mmHg 49%
    15:00 +18°C° 0 mm 2 mps 745 mmHg 53%
    16:00 +18°C° 0 mm 2 mps 745 mmHg 57%
    17:00 +17°C° 0 mm 2 mps 745 mmHg 60%
    18:00 +15°C° 0 mm 2 mps 745 mmHg 63%
    19:00 +14°C° 0 mm 2 mps 746 mmHg 66%
    20:00 +14°C° 0 mm 2 mps 746 mmHg 68%
    21:00 +13°C° 0 mm 2 mps 746 mmHg 70%
    22:00 +13°C° 0 mm 2 mps 746 mmHg 72%
    23:00 +13°C° 0 mm 1 mps 746 mmHg 73%

    18 October, Friday

    Time Temperature Precipitation Wind Pressure Humidity
    00:00 +13°C° 0 mm 1 mps 746 mmHg 74%
    01:00 +12°C° 0 mm 1 mps 746 mmHg 75%
    02:00 +12°C° 0 mm 1 mps 746 mmHg 75%
    03:00 +12°C° 0 mm 1 mps 746 mmHg 75%
    04:00 +12°C° 0 mm 1 mps 746 mmHg 75%
    05:00 +12°C° 0 mm 1 mps 746 mmHg 75%
    06:00 +12°C° 0 mm 1 mps 746 mmHg 75%
    07:00 +12°C° 0 mm 1 mps 746 mmHg 75%
    08:00 +14°C° 0 mm 1 mps 746 mmHg 70%
    09:00 +15°C° 0 mm 1 mps 746 mmHg 65%
    10:00 +18°C° 0 mm 1 mps 746 mmHg 60%
    11:00 +19°C° 0 mm 1 mps 746 mmHg 57%
    12:00 +20°C° 0 mm 1 mps 746 mmHg 54%
    13:00 +21°C° 0 mm 1 mps 745 mmHg 51%
    14:00 +20°C° 0 mm 1 mps 745 mmHg 54%
    15:00 +20°C° 0 mm 1 mps 745 mmHg 57%
    16:00 +18°C° 0 mm 2 mps 745 mmHg 60%
    17:00 +17°C° 0 mm 2 mps 745 mmHg 61%
    18:00 +17°C° 0 mm 2 mps 745 mmHg 61%
    19:00 +16°C° 0 mm 2 mps 745 mmHg 62%
    20:00 +16°C° 0 mm 1 mps 745 mmHg 63%
    21:00 +15°C° 0 mm 1 mps 745 mmHg 63%
    22:00 +15°C° 0 mm 1 mps 745 mmHg 64%
    23:00 +15°C° 0 mm 1 mps 745 mmHg 66%

    19 October, Saturday

    Time Temperature Precipitation Wind Pressure Humidity
    00:00 +14°C° 0 mm 1 mps 744 mmHg 68%
    01:00 +14°C° 0 mm 1 mps 744 mmHg 69%
    02:00 +14°C° 0 mm 1 mps 744 mmHg 71%
    03:00 +14°C° 0 mm 1 mps 744 mmHg 72%
    04:00 +14°C° 0 mm 1 mps 744 mmHg 74%
    05:00 +14°C° 0 mm 1 mps 743 mmHg 76%
    06:00 +13°C° 0 mm 1 mps 743 mmHg 77%
    07:00 +13°C° 0 mm 2 mps 743 mmHg 79%
    08:00 +15°C° 0 mm 2 mps 743 mmHg 74%
    09:00 +16°C° 0 mm 2 mps 743 mmHg 70%
    10:00 +17°C° 0 mm 2 mps 743 mmHg 65%
    11:00 +18°C° 0 mm 2 mps 743 mmHg 62%
    12:00 +19°C° 0 mm 2 mps 743 mmHg 58%
    13:00 +20°C° 0 mm 2 mps 742 mmHg 55%
    14:00 +20°C° 0 mm 1 mps 742 mmHg 58%
    15:00 +19°C° 0 mm 1 mps 742 mmHg 61%
    16:00 +19°C° 0 mm 1 mps 741 mmHg 65%
    17:00 +18°C° 0 mm 1 mps 741 mmHg 70%
    18:00 +15°C° 0 mm 2 mps 741 mmHg 76%
    19:00 +14°C° 0 mm 2 mps 741 mmHg 81%
    20:00 +14°C° 0 mm 2 mps 741 mmHg 83%
    21:00 +13°C° 0 mm 2 mps 741 mmHg 84%
    22:00 +13°C° 0 mm 1 mps 740 mmHg 86%
    23:00 +13°C° 0 mm 1 mps 740 mmHg 87%

    20 October, Sunday

    Time Temperature Precipitation Wind Pressure Humidity
    00:00 +12°C° 0 mm 2 mps 740 mmHg 88%
    01:00 +12°C° 0 mm 2 mps 739 mmHg 88%
    02:00 +12°C° 0 mm 2 mps 739 mmHg 89%
    03:00 +12°C° 0 mm 2 mps 739 mmHg 89%
    04:00 +12°C° 0 mm 2 mps 739 mmHg 89%
    05:00 +12°C° 0 mm 2 mps 740 mmHg 90%
    06:00 +11°C° 0 mm 3 mps 740 mmHg 91%
    07:00 +11°C° 0 mm 3 mps 740 mmHg 91%
    08:00 +12°C° 0 mm 3 mps 741 mmHg 85%
    09:00 +13°C° 0 mm 3 mps 741 mmHg 78%
    10:00 +15°C° 0 mm 4 mps 742 mmHg 72%
    11:00 +15°C° 0 mm 4 mps 742 mmHg 69%
    12:00 +17°C° 0 mm 4 mps 743 mmHg 65%
    13:00 +17°C° 0 mm 4 mps 743 mmHg 62%
    14:00 +17°C° 0 mm 3 mps 743 mmHg 64%
    15:00 +16°C° 0 mm 2 mps 743 mmHg 67%
    16:00 +16°C° 0 mm 2 mps 744 mmHg 69%
    17:00 +15°C° 0 mm 1 mps 744 mmHg 73%
    18:00 +13°C° 0 mm 1 mps 744 mmHg 76%
    19:00 +12°C° 0 mm 1 mps 745 mmHg 79%
    20:00 +12°C° 0 mm 1 mps 745 mmHg 81%
    21:00 +12°C° 0 mm 1 mps 745 mmHg 82%
    22:00 +12°C° 0 mm 1 mps 745 mmHg 83%
    23:00 +12°C° 0 mm 1 mps 745 mmHg 83%
    Show more